Location: Novokuznetsk
(53.7500°N, 87.1000°E)
Time: 02:16:04
(UTC+06:00)

ISS - Pass Details

Date: 20 July 2018
Orbit: 402 x 408 km, 51.6° (Epoch: 20 July)

Event Time Altitude Azimuth Distance (km) Brightness Sun altitude
Rises 21:32:48 0° 210° (SSW) 2,312 -0.2 -7.6°
Reaches altitude 10° 21:35:19 10° 190° (S) 1,458 -1.4 -7.8°
Maximum altitude 21:37:35 17° 147° (SSE) 1,094 -2.3 -8.0°
Drops below altitude 10° 21:39:51 10° 103° (ESE) 1,466 -1.5 -8.2°
Sets 21:42:23 0° 83° (E) 2,331 -0.3 -8.5°
